Back to catalog

DIANJIAN-1

AliveScienceSSO
NORAD 69098·PAYLOAD·🇨🇳 China
This satellite name has not been confirmed by official sources yet.

Launched May 15, 2026 from Jiuquan Satellite Launch Center

Loading…

Next Passes (next 24 hours)

TLE

FreshSource: Space-Track

Epoch: Sep 14, 2026, 13:29 UTC

1 69098U 26106B   26257.56193611  .00003363  00000-0  20924-3 0  9996
2 69098  97.5028 337.7742 0013873 209.5162 150.5286 15.10215037 18466

Track DIANJIAN-1 in real time with AllMySat

Download on the App Store